Location: Bijele Vode
(45.2833°N, 16.2000°E)
Time: 14:40:35
(UTC+00:00)

Cosmos 1626 - Pass Details

Date: 18 September 2020
Orbit: 490 x 495 km, 82.5° (Epoch: 31 October)

Event Time Altitude Azimuth Distance (km) Brightness Sun altitude
Rises 18:39:12 0° 6° (N) 2,589 6.0 -17.9°
Reaches altitude 10° 18:41:49 10° 25° (NNE) 1,699 4.8 -18.3°
Enters shadow 18:42:56 15° 40° (NE) 1,415 4.2 -18.5°
